North Platte, NE

2:16 AM CDT on April 23, 2017 (GMT -0500)
North Platte Regional-Bird

Weather History for KLBF - February, 2013

Change the Weather History Date:

Saturday, February 9, 2013

  Actual Average Record
Temperature  
Mean Temperature 36 °F 27 °F  
Max Temperature 51 °F 41 °F 74 °F (1996)
Min Temperature 21 °F 14 °F -18 °F (1933)
Degree Days  
Heating Degree Days 29 38  
Month to date heating degree days 250 345  
Since 1 July heating degree days 4205 4365  
Cooling Degree Days 0 0  
Month to date cooling degree days 0 0  
Year to date cooling degree days 0 0  
Moisture  
Dew Point 29 °F    
Average Humidity 63    
Maximum Humidity 93    
Minimum Humidity 32    
Precipitation  
Precipitation 0.06 in 0.01 in 0.45 in (2009)
Month to date precipitation 0.06 0.11  
Year to date precipitation 0.30 0.45  
Snow  
Snow 0.00 in 0.20 in 2.70 in (1944)
Month to date snowfall 0.0 1.6  
Since 1 July snowfall 8.9 17.2  
Snow Depth 0.00 in    
Sea Level Pressure  
Sea Level Pressure 29.63 in    
Wind  
Wind Speed 12 mph (SE)    
Max Wind Speed 21 mph    
Max Gust Speed 28 mph    
Visibility 9 miles    
Events Rain    
T = Trace of Precipitation, MM = Missing Value Source: NWS Daily Summary

Daily Weather History Graph

Daily Weather History Graph

Search for Another Location

Airport or City:

Trip Planner

Search our weather history database for the weather conditions in past years. The results will help you decide how hot, cold, wet, or windy it might be!

Date:

Astronomy

Feb. 09, 2013 Rise Set
Actual Time 7:44 AM CST 6:09 PM CST
Civil Twilight 7:15 AM CST 6:38 PM CST
Nautical Twilight 6:43 AM CST 7:11 PM CST
Astronomical Twilight 6:11 AM CST 7:43 PM CST
Moon 6:57 AM CST (2/9) 5:55 PM CST (2/9)
Length of Visible Light 11h 22m
Length of Day
10h 25m
Waning Crescent, 0% of the Moon is Illuminated
Feb 9
Waning Crescent
Feb 10
New
Feb 17
First Quarter
Feb 25
Full
Mar 4
Last Quarter

Hourly Weather History & Observations

Time (CST) Temp. Windchill Dew Point Humidity Pressure Visibility Wind Dir Wind Speed Gust Speed Precip Events Conditions
12:53 AM 33.1 °F 23.4 °F 24.1 °F 70% 29.84 in 10.0 mi ESE 13.8 mph - N/A   Clear
1:53 AM 27.0 °F 16.7 °F 21.9 °F 81% 29.84 in 10.0 mi ESE 11.5 mph - N/A   Clear
2:53 AM 26.1 °F 16.2 °F 21.9 °F 84% 29.83 in 10.0 mi ESE 10.4 mph - N/A   Clear
3:53 AM 25.0 °F 14.8 °F 21.9 °F 88% 29.82 in 10.0 mi ESE 10.4 mph - N/A   Clear
4:53 AM 21.9 °F 12.5 °F 19.0 °F 89% 29.81 in 9.0 mi East 8.1 mph - N/A   Clear
5:53 AM 23.0 °F 12.4 °F 19.9 °F 88% 29.81 in 8.0 mi ESE 10.4 mph - N/A   Clear
6:53 AM 21.9 °F 11.0 °F 19.0 °F 89% 29.82 in 8.0 mi ESE 10.4 mph - N/A   Clear
7:53 AM 21.9 °F 9.8 °F 19.0 °F 89% 29.83 in 6.0 mi ESE 12.7 mph - N/A   Clear
8:53 AM 27.0 °F 19.5 °F 23.0 °F 85% 29.81 in 8.0 mi ESE 6.9 mph - N/A   Clear
9:53 AM 35.1 °F 27.9 °F 23.0 °F 61% 29.78 in 10.0 mi SE 9.2 mph - N/A   Clear
10:53 AM 42.1 °F 35.7 °F 19.9 °F 41% 29.75 in 10.0 mi SSE 11.5 mph 18.4 mph N/A   Clear
11:53 AM 45.0 °F 39.7 °F 21.0 °F 39% 29.73 in 10.0 mi SSE 10.4 mph - N/A   Mostly Cloudy
12:53 PM 50.0 °F - 21.0 °F 32% 29.66 in 10.0 mi SE 15.0 mph 21.9 mph N/A   Clear
1:53 PM 48.9 °F - 23.0 °F 36% 29.64 in 10.0 mi SSE 15.0 mph - N/A   Mostly Cloudy
2:53 PM 51.1 °F - 25.0 °F 36% 29.59 in 10.0 mi SSE 20.7 mph 27.6 mph N/A   Clear
3:53 PM 50.0 °F - 27.0 °F 41% 29.55 in 10.0 mi SE 19.6 mph 25.3 mph N/A   Clear
4:53 PM 50.0 °F - 30.0 °F 46% 29.55 in 10.0 mi SE 12.7 mph 20.7 mph N/A   Clear
5:53 PM 48.0 °F - 33.1 °F 56% 29.54 in 10.0 mi East 10.4 mph - N/A   Overcast
6:53 PM 46.9 °F - 35.1 °F 63% 29.54 in 10.0 mi ESE 12.7 mph - N/A   Overcast
7:46 PM 46.4 °F 40.4 °F 35.6 °F 66% 29.48 in 10.0 mi SE 13.8 mph - N/A   Overcast
7:53 PM 46.9 °F - 37.0 °F 68% 29.52 in 9.0 mi SSE 13.8 mph - 0.00 in Rain Light Rain
8:53 PM 43.0 °F 35.7 °F 39.0 °F 86% 29.53 in 7.0 mi SSE 15.0 mph 23.0 mph 0.04 in Rain Light Rain
9:09 PM 42.8 °F 40.1 °F 39.2 °F 87% 29.47 in 7.0 mi SE 4.6 mph - 0.00 in Rain Light Rain
9:26 PM 42.8 °F 39.3 °F 39.2 °F 87% 29.46 in 8.0 mi Variable 5.8 mph - 0.00 in   Overcast
9:53 PM 41.0 °F 33.5 °F 39.0 °F 93% 29.47 in 5.0 mi ESE 13.8 mph - 0.01 in Rain Light Rain
10:48 PM 39.2 °F 31.2 °F 37.4 °F 93% 29.40 in 4.0 mi ESE 13.8 mph - 0.01 in Rain Light Rain
10:53 PM 39.9 °F 31.8 °F 37.9 °F 93% 29.41 in 4.0 mi ESE 15.0 mph - 0.01 in Rain Light Rain
11:21 PM 39.2 °F 34.2 °F 37.4 °F 93% 29.37 in 6.0 mi East 6.9 mph - 0.00 in   Overcast
11:40 PM 39.2 °F 35.0 °F 37.4 °F 93% 29.36 in 8.0 mi East 5.8 mph - 0.00 in   Overcast
11:53 PM 39.9 °F - 37.9 °F 93% 29.38 in 10.0 mi Calm Calm - 0.00 in   Overcast